Wind_Speed
23 23 24 24 24 24 23 23 22 21 20 19 19 18 17 17 16 16 15 15 15 14 14 14 14 14 14 14 14 14 15 14 14 14 13 13 12 11 10 10 9 9 9 8 7 7 6 6 7 7 8 8 8 8 8 8 8 8 8 9 9 9 9 8 8 7 8 7 7 7 8 8 8 8 8 9 9 10 11 12 13 14 15 15 14
24 24 24 24 24 24 24 24 23 22 21 21 21 20 20 19 18 17 17 16 16 16 16 16 15 15 16 16 16 16 16 16 15 15 15 14 13 13 12 12 11 11 11 10 10 9 8 8 9 9 9 9 9 9 9 9 9 9 9 10 10 10 10 10 9 8 8 9 9 8 9 9 9 10 10 10 11 11 12 13 14 14 15 16 15
25 24 24 24 25 24 23 23 23 23 23 22 23 22 22 21 20 19 18 18 18 18 18 17 17 17 17 17 17 17 17 17 17 17 16 15 15 14 14 14 13 13 12 12 12 11 11 10 11 11 11 11 11 11 11 10 10 10 10 10 11 11 11 11 11 11 10 10 10 10 10 10 11 11 12 13 13 14 15 15 15 15 15 16 16
25 25 25 25 25 25 24 24 23 23 23 23 24 24 24 23 22 21 20 20 19 19 19 18 18 19 19 19 18 18 18 18 18 18 17 17 17 16 16 16 15 14 14 13 13 13 13 13 13 14 14 13 13 12 12 12 12 12 12 12 12 12 13 12 13 13 12 11 11 12 12 12 13 13 15 16 16 17 18 18 17 17 17 17 17
26 26 26 26 26 26 26 26 25 24 24 24 24 25 25 24 23 22 22 22 21 21 20 20 20 20 20 20 19 19 19 20 20 20 19 18 18 18 18 18 17 16 15 15 15 15 15 15 15 15 16 16 15 15 15 14 14 13 13 13 13 13 14 14 14 14 15 14 13 12 13 13 14 15 17 19 20 20 20 20 20 19 19 18 18
26 26 26 26 27 27 27 27 27 26 26 26 25 26 26 26 25 24 24 23 23 23 23 22 22 22 22 22 21 21 21 21 21 21 21 21 21 20 20 19 18 18 17 17 17 17 17 16 16 16 17 17 17 17 17 16 16 15 14 14 13 13 14 14 14 15 16 16 16 15 14 14 15 16 17 19 20 21 21 22 22 22 21 20 19
26 25 25 26 27 28 28 28 29 29 28 27 27 27 27 27 27 27 26 25 25 25 25 25 24 24 23 23 23 22 22 23 23 23 22 22 22 22 21 21 21 20 20 19 19 19 19 18 18 18 18 18 18 18 18 18 17 17 16 15 14 14 15 15 15 15 16 17 18 18 17 17 17 17 18 19 20 21 22 23 23 23 23 23 22
26 25 26 26 27 27 28 29 30 30 30 29 29 28 29 29 28 29 28 28 28 28 27 27 26 25 25 25 24 24 24 25 25 24 24 24 23 23 23 23 22 22 22 21 20 20 20 20 20 20 20 20 20 19 19 19 19 18 18 17 16 16 16 16 16 16 17 18 20 20 20 20 20 20 20 21 21 22 23 24 24 25 25 25 25
28 27 27 27 28 29 28 29 30 31 31 31 30 30 30 30 30 30 30 29 30 29 29 28 27 27 26 26 26 26 26 26 27 26 26 25 25 24 24 24 23 23 24 23 23 23 23 23 23 23 23 22 22 22 22 21 21 20 20 19 18 18 18 18 19 18 19 20 21 21 21 21 21 22 22 23 24 24 24 24 25 26 26 27 27
29 29 29 30 32 31 29 29 30 30 30 30 29 30 31 31 31 31 31 31 31 30 30 29 28 28 28 28 28 27 27 27 27 28 27 27 27 26 26 25 24 24 25 25 26 26 25 25 25 25 25 25 25 25 25 24 24 23 23 22 21 21 20 20 21 21 21 21 22 22 22 21 19 21 24 26 26 26 26 25 26 26 26 27 28
31 32 33 33 35 35 35 33 31 30 30 29 29 30 32 32 32 32 32 32 31 31 31 31 30 30 30 29 28 28 26 26 27 29 29 28 28 28 28 27 26 26 25 26 28 28 27 27 27 27 27 26 26 27 27 27 27 26 25 24 23 22 22 22 23 22 22 22 23 24 24 22 20 20 24 27 27 26 26 26 26 27 27 27 28
33 35 35 37 39 40 40 37 35 33 32 30 30 31 32 32 32 32 32 32 31 31 32 32 32 31 31 30 29 28 26 27 30 31 29 28 29 29 30 29 28 27 26 27 30 30 29 29 29 28 28 27 28 28 28 28 29 29 27 26 24 23 23 23 24 24 23 23 24 25 25 25 23 22 24 28 28 27 27 28 28 28 28 28 29
33 33 33 36 40 43 43 40 37 36 36 34 32 33 34 34 33 32 32 31 31 31 32 33 32 32 32 32 31 31 29 30 32 32 30 29 29 30 30 30 29 28 29 31 33 32 31 30 29 29 29 29 29 30 29 29 30 29 29 28 27 26 25 25 25 26 26 26 26 25 26 26 26 25 26 29 30 29 30 31 31 32 31 30 30
29 30 30 31 33 38 42 41 39 38 39 38 36 35 36 36 35 34 32 31 31 31 33 34 32 32 33 34 34 32 32 33 34 33 32 31 31 31 32 31 31 31 33 34 34 33 33 32 31 30 30 30 30 31 31 31 30 30 29 30 30 30 30 28 28 29 29 28 27 27 27 28 28 29 29 30 31 31 31 32 33 34 34 34 33
23 25 27 28 27 28 32 35 38 40 43 42 40 40 40 39 38 38 35 33 32 31 32 34 34 33 33 35 35 35 34 35 36 36 35 34 34 34 34 34 34 34 35 36 36 35 34 34 33 32 32 32 31 32 32 32 32 31 31 32 32 33 34 33 32 33 33 31 29 29 29 29 29 30 31 31 31 31 31 32 32 33 34 35 35
20 22 24 25 25 25 25 27 31 38 44 46 44 43 43 42 40 40 38 36 36 35 34 33 34 34 34 34 36 37 37 37 37 38 38 37 37 37 37 36 36 36 35 36 36 36 36 35 35 34 34 34 33 33 34 34 33 32 32 34 34 35 36 35 35 36 36 34 33 32 32 32 32 32 33 34 34 35 35 35 35 34 33 34 35
21 22 23 23 24 25 25 25 27 31 38 45 47 47 46 44 42 42 42 39 39 40 39 36 34 35 37 36 36 37 38 38 37 38 39 39 39 38 38 38 37 36 35 35 35 36 37 36 36 36 36 35 34 34 35 35 34 33 32 34 35 35 36 36 37 38 38 36 36 35 35 34 34 34 36 36 37 37 37 37 38 38 36 34 33
22 23 24 24 24 25 24 22 22 24 28 38 47 49 47 45 43 43 42 41 40 42 43 40 36 38 40 39 36 37 39 40 39 38 39 40 40 39 38 38 37 36 35 34 34 35 36 36 36 36 36 35 35 35 35 36 36 36 35 35 35 35 36 37 37 37 38 37 37 38 38 37 36 36 36 36 36 37 36 37 39 39 39 36 33
24 24 26 26 26 26 24 22 20 19 18 24 33 40 43 44 46 47 45 42 41 42 44 43 40 39 41 40 39 37 38 41 42 41 40 41 41 41 40 39 38 37 36 36 35 35 37 37 37 37 37 36 36 36 37 38 39 39 38 39 38 36 35 37 37 36 36 37 38 38 39 38 38 38 37 35 35 35 36 38 38 37 38 37 34
24 25 26 27 27 28 27 27 25 21 17 16 19 22 26 29 35 42 47 48 46 43 43 44 43 40 40 41 40 38 38 41 42 42 43 43 42 42 42 41 39 38 38 38 38 38 39 39 39 40 40 39 39 39 40 40 41 40 40 41 41 38 37 37 37 35 35 37 38 38 38 38 39 39 39 38 37 37 38 38 36 36 38 37 34
23 23 24 25 27 28 29 30 31 29 27 27 26 23 21 21 21 24 31 39 44 44 44 46 45 42 40 41 42 40 39 41 42 42 43 43 42 42 43 43 42 41 41 41 40 40 41 42 43 44 44 43 42 42 42 41 41 41 41 41 42 41 39 38 38 37 37 38 38 37 37 39 40 41 41 40 39 41 44 42 39 39 40 39 37
24 23 24 25 26 27 27 28 29 30 29 29 29 27 25 23 22 22 22 24 28 33 37 41 45 44 42 41 42 41 40 40 42 43 42 41 42 42 43 44 44 43 43 42 42 42 43 44 45 46 47 46 45 43 42 42 41 40 40 40 40 40 40 39 39 39 38 38 38 37 37 38 40 42 42 42 41 42 44 42 40 39 40 39 39
26 25 25 25 25 25 25 24 25 26 25 24 24 24 24 23 23 24 24 23 21 22 23 27 33 38 41 43 44 45 43 41 42 43 44 43 43 43 43 45 45 45 45 45 45 44 45 46 45 45 45 45 44 43 41 40 38 38 38 38 38 39 39 39 40 39 39 38 37 37 38 38 38 40 42 43 43 41 42 42 41 39 38 37 39
26 26 26 25 24 24 24 24 23 24 24 23 22 22 23 23 23 23 24 25 24 23 22 21 22 24 28 33 37 40 41 42 44 45 46 46 45 44 43 44 44 45 46 46 45 46 46 46 46 45 44 44 42 41 40 38 37 37 36 37 38 38 39 39 39 40 40 39 38 38 39 40 40 40 40 40 38 38 39 41 41 40 38 38 39
25 25 24 24 24 24 24 24 23 23 23 23 22 22 21 22 23 24 25 26 27 27 26 25 24 23 23 25 27 28 29 31 34 36 38 40 41 41 40 38 38 39 40 40 41 43 45 45 44 44 43 42 39 38 38 38 38 38 38 38 38 39 40 40 41 41 41 41 41 40 40 40 40 39 38 36 36 37 38 39 39 38 37 38 39
23 23 23 23 23 23 23 23 23 23 22 22 22 23 23 23 24 25 26 27 28 29 29 29 28 28 27 27 27 27 26 25 24 25 28 31 33 34 34 33 33 33 35 37 38 40 41 41 41 41 41 40 38 37 37 38 39 40 40 40 41 41 41 42 42 42 42 42 41 40 39 40 41 41 41 40 40 39 39 38 39 39 40 41 43
22 23 23 23 23 22 23 23 23 23 24 23 23 23 24 24 25 26 27 28 29 29 30 30 31 31 31 31 31 31 31 30 29 28 29 30 31 32 33 33 32 31 32 33 35 36 37 38 38 39 39 39 39 39 40 41 41 42 42 43 43 43 44 44 44 44 44 44 43 42 41 43 44 44 44 44 43 42 42 44 46 47 49 50 49
24 24 24 24 24 24 23 23 24 24 25 25 25 25 25 26 26 26 27 29 30 30 30 31 31 32 33 34 34 35 35 35 35 35 34 34 35 35 36 36 35 34 34 34 34 35 36 37 38 39 39 40 40 41 41 42 42 42 43 44 44 44 45 45 45 46 46 46 46 46 46 46 46 47 48 49 49 50 52 53 54 54 55 55 54
26 27 27 27 27 27 26 26 25 26 26 26 27 27 27 27 27 27 27 28 29 31 31 31 31 32 33 34 35 36 36 37 37 37 37 37 37 37 38 38 38 38 37 36 36 37 38 39 40 41 42 43 43 43 43 43 44 44 45 45 46 46 46 46 46 47 47 47 48 48 49 49 50 50 51 52 54 56 56 56 56 55 54 55 56
28 29 29 30 30 29 29 29 28 28 28 28 28 29 29 29 29 30 30 30 30 31 32 33 33 33 33 34 34 35 36 37 38 38 38 38 38 38 38 38 39 39 39 39 39 39 40 42 43 44 45 46 46 46 46 46 47 47 48 48 48 49 49 49 49 49 49 49 49 49 50 51 52 53 53 54 55 55 56 55 55 54 53 53 54
29 29 30 30 30 31 31 31 30 30 30 29 29 30 30 31 32 32 32 32 33 33 34 34 35 35 35 36 36 36 37 38 39 40 40 41 41 41 40 40 40 40 41 41 41 42 43 44 45 46 47 48 49 49 49 50 50 50 51 51 51 51 52 52 53 53 53 53 52 52 52 53 54 54 55 55 55 56 56 55 55 55 54 53 53
29 29 29 30 30 30 31 31 31 32 32 32 32 31 31 32 33 34 34 34 35 35 36 36 37 37 38 38 39 39 40 40 41 41 42 43 44 44 44 44 43 43 43 44 44 45 46 47 48 49 50 51 52 53 53 54 54 55 55 55 55 55 56 56 56 57 57 57 56 56 56 55 56 56 57 57 57 57 57 57 56 55 54 54 56
28 29 29 29 29 29 30 30 31 32 33 33 34 34 34 34 34 35 36 36 37 37 38 39 39 40 40 41 41 42 43 43 43 44 44 45 45 46 47 47 47 47 47 47 47 48 48 49 50 51 52 54 55 56 56 57 58 59 59 60 60 60 60 60 60 60 60 60 59 59 59 58 58 57 58 58 58 56 56 58 58 57 57 58 59
27 27 28 28 29 29 29 29 30 30 32 32 33 34 35 36 36 36 37 37 38 39 39 40 41 41 42 43 43 44 44 45 46 46 47 47 47 48 48 49 50 50 50 50 51 51 51 51 52 52 53 54 56 57 58 59 60 61 62 62 63 63 63 64 64 63 63 63 62 62 62 61 60 59 59 59 59 58 59 60 60 60 61 62 62
27 27 27 27 27 28 28 28 28 28 29 29 30 31 32 33 34 35 35 36 37 38 39 39 40 41 42 42 43 44 44 45 46 46 47 48 49 49 50 50 51 52 52 53 54 54 54 54 54 54 54 55 56 56 58 59 60 62 63 64 64 65 65 65 65 65 65 65 65 64 64 64 63 62 61 60 60 60 61 62 63 62 62 62 63
26 26 26 26 26 26 26 26 27 27 27 27 27 28 29 30 31 32 33 34 35 36 37 38 39 40 40 41 42 43 43 44 45 45 46 47 47 48 49 50 51 51 52 53 54 55 56 57 57 57 57 57 57 57 58 58 59 60 62 63 64 65 66 66 66 66 66 66 66 66 65 65 64 64 63 63 62 62 62 63 63 63 62 63 64
23 24 24 25 25 25 26 26 27 28 28 29 29 30 31 32 33 33 34 35 35 36 37 38 39 40 41 42 42 43 44 45 46 46 47 47 48 49 49 50 51 51 52 52 53 54 55 56 57 58 58 59 60 60 60 59 59 60 60 61 63 64 65 66 66 66 66 66 66 66 66 66 65 64 64 64 63 63 63 63 63 63 62 62 63
23 23 24 25 26 26 27 28 29 30 31 32 33 33 34 35 35 36 37 37 37 38 39 39 40 41 42 42 43 44 45 47 47 48 49 50 50 51 52 53 53 54 54 55 55 56 57 57 57 58 58 59 60 61 61 61 61 61 61 61 61 62 63 64 65 66 66 66 65 65 65 65 65 65 64 64 63 62 62 62 63 64 64 64 65
25 25 26 27 27 28 29 30 31 32 33 34 35 35 36 36 37 38 39 39 40 41 42 42 43 43 44 44 44 45 46 47 48 49 50 51 52 53 54 55 56 56 57 58 59 60 60 61 61 62 62 62 62 62 62 62 62 63 63 62 62 62 62 63 64 64 65 66 66 65 65 64 63 63 63 63 63 63 63 63 62 62 63 63 64
26 26 27 28 28 29 30 32 33 33 34 35 36 37 37 38 39 40 41 42 43 44 45 46 46 47 47 48 48 48 49 50 51 51 52 53 54 55 56 57 58 59 60 61 61 62 63 64 64 65 65 66 66 66 66 65 65 64 64 64 64 64 63 63 63 63 64 64 65 65 66 65 65 64 63 63 63 63 64 66 66 65 64 62 61
27 27 28 29 30 32 33 34 35 36 36 37 38 38 39 40 41 43 44 45 46 47 48 49 50 50 51 52 52 52 53 55 55 56 56 56 57 57 58 59 60 61 62 63 64 65 66 66 67 67 68 68 68 69 69 69 68 68 67 67 66 66 65 65 65 64 64 64 64 64 65 65 66 67 66 66 65 64 65 66 67 69 69 69 67
30 30 31 32 33 35 36 37 37 38 39 40 40 41 43 44 45 46 47 48 48 49 50 52 53 54 54 55 55 55 56 57 58 59 60 60 60 60 60 60 61 61 62 63 65 66 67 68 69 70 70 70 70 70 71 71 70 70 70 69 68 68 67 67 66 65 65 65 64 64 64 64 65 66 66 67 67 67 66 66 66 67 68 70 71
33 34 35 36 37 38 39 40 40 41 42 42 43 44 46 47 48 49 50 51 52 52 53 54 56 57 57 57 57 57 58 59 60 60 61 61 61 62 62 62 63 63 63 64 64 65 67 68 69 70 71 72 72 72 73 72 72 72 71 71 70 69 69 69 67 66 65 65 64 64 64 64 64 64 65 65 65 66 66 66 66 65 66 67 68
37 38 39 40 40 41 41 42 42 43 44 45 46 47 48 49 50 51 52 53 54 55 56 57 58 58 59 59 59 59 59 60 60 60 61 61 61 61 62 62 63 64 64 65 66 67 68 68 68 69 70 71 72 73 74 74 74 74 73 72 71 70 70 69 68 67 66 65 64 64 63 62 62 62 63 63 64 64 63 64 64 64 64 64 64
39 40 41 42 43 43 43 44 44 45 46 47 48 49 50 51 52 53 54 55 56 57 57 58 58 59 59 59 59 59 59 59 59 59 59 59 59 59 60 60 61 63 64 65 66 67 68 69 70 70 71 71 72 72 73 74 74 74 74 74 74 73 72 71 69 68 67 66 65 64 63 62 62 61 61 62 62 62 62 62 61 61 61 61 61
39 40 41 42 43 44 44 45 46 47 48 49 49 50 51 52 53 54 55 56 56 56 57 57 57 58 57 57 56 56 55 55 55 55 55 55 55 55 56 56 57 59 60 62 63 65 66 67 69 70 70 71 72 72 73 73 74 74 74 74 74 74 73 72 71 70 69 67 66 65 64 63 62 61 61 61 61 61 61 60 60 59 58 58 57
39 40 41 42 43 44 45 46 47 48 49 50 50 51 52 53 54 55 55 56 56 56 56 56 56 55 54 53 52 51 51 51 52 52 52 52 53 53 53 53 54 55 56 57 58 59 60 61 62 63 64 65 66 67 69 70 71 71 72 72 73 73 72 72 72 72 71 70 68 67 66 65 64 63 62 61 61 60 60 59 59 58 57 56 55
41 42 43 44 45 46 46 47 48 49 49 50 51 52 52 53 54 54 55 54 54 54 54 53 52 52 51 50 50 49 50 50 51 51 52 52 52 52 52 52 52 52 53 53 53 53 54 55 55 56 56 56 57 58 59 60 62 63 65 66 67 68 68 69 69 70 70 70 70 69 67 66 65 64 64 63 62 62 61 60 60 59 57 56 55
43 44 44 45 46 46 47 48 49 50 51 51 51 52 52 52 53 53 53 53 53 53 52 51 50 49 49 49 50 51 51 51 52 52 52 52 52 52 52 51 51 50 50 50 50 50 51 51 52 52 51 51 51 51 51 51 52 53 54 55 56 58 60 61 62 63 64 65 66 66 66 65 64 64 63 63 62 62 62 61 60 60 59 58 57
44 45 45 46 46 47 49 49 50 50 51 51 51 51 51 51 51 51 51 51 51 50 50 49 48 48 49 50 50 51 51 52 52 52 52 52 52 51 51 51 50 50 50 50 50 50 50 51 51 51 50 50 49 49 48 48 48 48 48 48 48 49 51 52 54 55 56 57 58 58 59 59 59 59 59 59 58 58 58 58 57 57 57 57 56
44 45 46 47 48 48 49 49 49 49 49 50 50 50 50 50 50 50 49 49 48 48 48 48 48 48 49 50 50 51 51 52 52 52 52 52 51 51 51 50 50 50 50 50 50 50 50 51 51 51 51 50 49 48 48 48 48 47 47 46 45 45 46 46 47 48 49 50 51 51 51 50 49 49 50 51 51 51 50 50 50 50 50 50 50
Wind_Direction
231 231 230 231 231 232 232 233 235 235 237 238 239 240 240 240 240 240 241 241 243 246 247 247 247 245 242 239 239 239 239 238 237 237 238 239 241 242 243 243 242 246 249 252 256 259 260 259 257 256 255 254 255 259 262 266 269 272 274 276 279 281 283 285 285 285 287 287 285 282 281 278 278 279 282 285 286 286 289 293 298 304 308 310 312
231 231 232 233 233 234 235 236 237 238 239 240 241 242 242 241 241 242 243 243 244 245 245 246 246 246 246 244 241 239 239 240 241 241 241 242 244 246 248 250 250 251 252 253 255 256 257 258 260 263 265 267 268 270 270 272 275 279 281 283 285 285 285 285 285 283 281 283 285 284 285 288 290 291 290 290 289 287 288 292 296 302 307 309 311
232 233 233 234 235 236 237 239 241 242 242 243 243 244 244 243 243 243 243 244 245 246 247 247 247 246 247 246 245 242 239 238 241 243 244 245 246 248 249 252 254 256 259 262 263 263 263 262 263 266 270 272 275 278 279 282 284 283 283 284 285 286 286 286 287 288 287 288 290 290 290 292 294 294 293 291 290 290 291 294 297 301 305 307 309
236 237 237 237 238 238 238 239 241 243 245 246 246 246 246 246 245 245 245 245 245 246 247 248 249 250 248 247 247 246 244 242 241 243 244 245 247 248 250 252 254 257 261 265 268 271 272 272 271 273 275 276 277 279 281 282 284 285 285 285 286 286 288 290 292 293 292 290 289 291 294 296 297 298 297 296 295 295 296 298 300 302 305 306 307
240 240 240 241 242 242 241 240 240 242 244 246 248 250 250 249 247 247 247 247 246 245 245 246 247 249 249 248 247 246 246 246 245 245 246 246 248 249 250 252 255 258 261 263 265 268 271 273 274 276 278 280 281 282 282 281 281 281 283 285 288 290 292 295 295 294 293 291 288 288 291 293 295 296 297 297 297 297 298 299 299 301 301 301 301
243 244 244 244 245 244 244 243 242 241 242 243 246 248 250 250 249 247 246 247 247 246 245 244 244 245 247 248 247 245 244 244 245 246 246 247 248 248 250 252 253 254 256 258 261 264 267 268 269 271 273 277 279 281 281 281 280 280 281 284 287 291 293 295 295 294 294 294 293 290 288 287 288 290 292 293 294 295 296 296 297 297 296 296 295
242 246 249 249 249 248 247 246 245 243 242 243 244 245 247 249 249 249 247 246 246 246 245 244 243 244 245 246 248 247 246 244 243 243 244 245 247 248 249 250 252 253 254 255 258 261 265 268 268 269 269 271 273 275 276 276 276 277 279 281 284 287 288 290 291 291 292 296 297 296 294 292 289 289 290 291 292 293 294 294 294 295 294 294 294
240 243 246 249 252 253 251 248 247 247 245 244 245 246 247 248 250 251 251 249 248 246 246 246 246 246 246 247 248 248 249 248 247 246 245 245 246 248 249 250 252 255 256 258 258 259 262 264 266 267 267 268 268 269 270 271 272 273 275 277 278 279 281 283 284 285 287 291 292 293 294 294 293 293 292 291 291 291 292 293 293 294 295 295 295
241 243 244 248 252 254 253 251 250 249 247 246 246 247 248 249 250 251 252 253 253 252 251 250 249 249 249 249 249 249 250 251 252 251 250 249 249 250 252 252 254 257 258 260 260 260 261 262 263 264 265 265 266 266 267 268 269 270 272 273 273 273 274 277 278 278 279 280 283 286 288 289 292 294 292 290 290 290 290 291 290 291 292 292 293
243 245 247 250 252 252 253 253 253 253 251 250 249 250 250 250 250 250 251 252 254 256 257 255 253 252 251 251 251 251 252 255 256 257 257 256 255 255 255 255 257 258 259 261 262 261 260 261 261 262 262 263 265 267 269 269 269 270 269 269 270 270 270 271 272 273 274 275 277 278 278 281 287 290 289 288 289 289 289 288 288 288 289 290 290
246 247 249 252 253 253 254 253 253 257 258 255 252 253 253 252 250 250 251 251 252 254 256 257 257 255 254 253 253 254 255 257 258 258 258 260 260 259 258 258 259 259 259 261 262 261 261 261 261 262 263 264 265 268 269 270 269 269 268 267 267 267 267 266 267 269 272 273 274 273 273 275 278 282 286 288 288 287 287 287 286 286 287 287 288
250 252 252 253 254 255 256 255 252 255 259 258 255 254 255 255 254 253 253 252 252 252 253 255 256 257 257 257 256 256 255 254 254 253 253 257 261 262 262 261 262 262 261 261 261 260 260 261 260 261 263 264 265 265 266 267 268 268 268 268 267 266 265 265 266 268 268 268 269 272 274 277 277 278 282 285 287 287 288 288 288 288 288 288 287
253 257 258 257 255 254 255 255 252 252 255 256 255 254 253 254 255 257 256 254 253 252 253 253 254 257 258 258 257 256 253 252 254 254 253 255 259 261 262 262 263 263 262 260 260 261 261 261 260 259 260 261 262 263 262 262 264 265 267 269 270 269 268 267 268 269 268 266 267 270 273 277 278 279 279 281 285 287 289 291 292 292 292 291 289
252 256 260 261 259 256 254 253 253 252 253 254 253 253 252 250 252 256 256 254 253 253 253 252 251 252 255 256 255 256 256 256 257 258 257 257 258 258 258 259 259 259 260 260 260 261 261 261 261 259 259 260 260 261 262 262 262 263 267 269 269 268 269 269 271 273 272 272 273 274 274 275 278 279 279 281 285 288 290 293 295 295 295 294 292
254 256 257 260 263 263 259 256 253 252 252 252 252 252 252 250 251 254 254 254 255 254 254 254 251 250 254 258 257 254 254 255 256 258 259 258 259 259 258 258 257 257 259 261 261 261 261 261 260 259 260 261 261 262 263 264 264 265 266 267 266 265 266 267 270 273 273 272 273 273 273 274 275 276 276 278 282 287 290 293 296 299 299 299 297
266 263 261 261 264 269 271 268 262 256 253 251 249 250 250 250 251 253 254 255 256 255 254 254 253 248 246 250 254 254 253 253 254 257 259 259 260 260 261 261 260 258 259 260 261 261 260 259 258 259 260 262 263 263 262 263 265 265 266 266 266 266 266 267 268 271 271 270 271 273 273 273 273 274 274 275 279 282 284 288 291 295 297 298 298
277 275 274 271 268 272 278 280 276 268 259 253 248 247 248 249 250 252 255 256 256 255 254 252 251 248 242 240 246 253 254 253 252 254 257 258 259 260 260 261 261 259 258 258 260 261 260 258 257 257 258 259 260 261 262 263 265 266 267 268 268 268 268 267 267 268 269 271 272 274 275 274 274 274 273 273 275 277 280 282 285 287 289 292 295
279 282 284 281 277 278 281 283 284 280 267 255 248 245 247 249 249 252 257 258 256 256 257 253 250 249 246 242 244 249 252 251 250 251 255 256 257 257 258 258 259 260 260 259 259 260 261 259 258 257 257 257 258 259 262 265 267 268 268 269 269 269 268 267 266 267 270 273 273 273 274 274 274 274 273 273 275 277 278 280 282 284 284 286 290
279 283 286 286 286 285 283 284 290 291 278 263 251 245 247 251 251 251 256 258 258 258 258 256 253 251 247 245 246 249 248 247 247 249 253 254 254 255 255 256 257 260 261 260 259 260 260 260 260 259 259 260 261 263 265 267 269 270 270 270 270 269 268 268 268 268 270 272 272 272 273 273 274 274 274 274 276 278 279 279 279 280 280 280 284
280 282 285 287 289 288 286 285 287 286 282 283 274 259 257 262 259 254 253 256 259 260 258 254 253 252 248 244 246 249 247 244 244 247 252 254 254 254 254 255 257 259 259 260 260 260 261 261 262 262 262 262 264 266 268 269 269 270 271 271 271 270 268 268 268 268 270 271 272 274 275 275 276 275 274 274 273 274 275 274 273 276 278 277 280
280 281 282 284 286 288 288 287 286 285 283 286 289 287 288 294 291 275 262 258 257 257 256 253 253 255 252 246 245 248 248 244 242 247 252 254 253 253 253 254 256 258 258 260 262 262 262 263 264 264 264 263 264 266 269 270 270 270 270 270 270 269 268 267 266 267 270 272 273 275 275 276 278 278 277 275 272 272 273 273 273 275 276 276 277
281 281 281 281 283 287 288 288 289 291 292 293 294 293 293 296 299 298 291 278 266 259 257 255 255 256 257 252 250 253 256 251 246 248 252 253 255 256 255 255 256 258 259 262 264 263 263 264 265 265 265 264 264 266 268 269 269 269 268 267 267 267 268 268 268 269 271 272 273 275 276 278 282 283 279 276 274 274 275 275 274 274 274 274 273
281 281 281 281 281 284 287 288 289 292 294 295 295 293 291 289 288 289 291 289 281 274 271 265 261 259 259 258 257 259 263 260 253 251 253 255 258 260 258 257 258 260 261 261 260 259 260 262 261 262 262 262 261 261 263 265 267 267 265 264 264 264 265 267 269 271 272 272 273 276 278 279 281 282 280 277 274 272 271 269 268 270 271 268 267
278 279 280 279 279 280 283 285 286 286 286 286 285 286 286 283 279 277 277 277 275 276 277 278 276 271 265 262 262 263 263 262 259 258 258 258 259 262 262 260 259 259 258 256 253 253 255 257 257 257 257 257 256 256 258 261 264 264 263 262 262 263 264 265 268 271 272 273 273 275 277 277 276 275 277 275 272 269 268 266 266 267 268 268 269
274 275 275 275 275 276 278 278 278 278 278 279 278 277 276 276 274 272 270 270 271 272 273 274 274 273 271 269 269 269 267 263 260 261 262 259 257 258 259 257 256 255 253 252 251 251 251 253 255 255 254 254 255 256 258 260 262 263 263 263 263 264 264 266 268 270 271 273 274 275 277 276 273 272 273 272 270 268 268 268 268 268 269 272 274
270 271 270 270 271 272 272 274 275 275 275 275 274 273 270 269 270 270 269 267 267 268 271 273 273 273 272 272 272 273 273 269 262 259 260 258 255 254 254 254 255 256 255 254 253 253 252 253 253 253 254 256 257 258 260 262 263 264 264 265 266 266 267 268 270 271 271 272 274 275 274 272 271 273 274 271 268 267 268 270 271 271 273 275 275
267 268 269 269 269 269 269 271 272 274 275 274 273 272 271 269 268 269 269 269 268 268 268 270 272 273 273 274 274 274 274 273 270 267 266 265 263 262 262 263 263 262 260 259 258 257 257 258 257 257 258 259 260 261 262 263 264 265 265 266 267 268 268 269 270 272 273 273 273 272 271 269 269 270 270 269 267 268 271 275 276 276 277 278 277
267 267 268 269 269 269 268 268 269 270 272 273 273 273 273 272 271 270 268 268 269 270 270 270 270 271 271 272 273 274 274 274 275 275 274 274 273 272 272 272 271 269 267 265 264 262 262 261 261 261 262 262 263 263 264 264 266 267 268 268 269 269 269 270 271 271 272 273 273 273 272 271 269 268 267 267 269 270 273 275 276 276 277 277 276
268 269 270 270 271 270 269 269 268 268 268 269 271 272 273 272 272 272 270 269 268 269 270 271 270 270 270 270 271 272 273 274 275 276 276 276 276 276 276 276 276 274 272 269 267 265 264 263 263 263 262 262 263 264 265 265 267 268 269 270 271 271 271 272 272 272 272 272 272 272 272 272 272 270 269 268 269 270 272 274 274 274 275 274 273
264 266 268 270 271 272 272 272 272 271 270 269 270 271 272 272 272 272 271 271 270 269 269 270 270 270 270 269 269 270 271 273 274 275 275 275 275 275 274 274 274 273 272 271 269 267 265 265 265 264 264 264 264 264 265 266 266 267 269 270 271 271 272 272 272 272 272 272 272 271 271 271 271 271 271 271 271 271 272 272 273 273 273 272 272
262 263 264 266 268 270 272 274 275 275 275 274 273 273 273 274 274 274 274 273 273 272 271 271 271 271 271 271 270 269 269 270 271 272 273 274 274 274 273 272 271 270 269 268 267 266 264 264 264 264 264 264 264 265 265 265 266 266 267 268 269 270 271 271 272 272 272 272 271 271 271 271 271 271 271 271 272 272 272 272 272 271 269 267 267
264 265 265 265 266 268 270 272 274 275 277 277 277 277 276 275 275 275 275 275 275 274 274 273 273 272 272 272 272 271 271 270 270 269 270 271 272 273 273 273 272 271 269 268 267 265 264 263 262 262 263 263 263 264 264 264 265 265 265 266 267 268 268 269 270 271 271 272 271 271 271 270 270 271 271 271 271 271 271 270 269 267 264 264 266
266 267 268 268 268 268 269 270 271 273 274 276 277 278 278 278 277 277 277 276 276 276 275 275 275 274 274 273 273 273 273 273 272 272 271 271 271 271 272 273 273 273 272 271 270 268 267 265 264 263 263 263 263 263 264 264 265 265 265 266 266 266 267 267 268 269 270 270 271 271 271 271 271 271 271 271 271 270 269 269 268 266 265 267 268
268 269 269 270 270 271 271 272 272 272 273 274 275 276 277 278 278 278 278 278 278 277 277 276 276 276 277 277 276 276 275 275 275 275 275 275 274 274 273 273 273 273 274 274 273 273 272 270 269 267 266 265 264 264 264 265 265 266 266 267 267 268 268 269 269 269 270 270 271 271 272 271 271 271 271 271 271 270 269 269 268 267 268 269 271
269 271 272 274 275 275 276 276 277 277 277 277 276 277 277 278 278 279 279 279 279 279 279 279 279 279 279 279 279 279 279 279 279 278 278 278 278 278 277 277 276 275 275 275 275 275 275 274 274 273 272 270 269 267 266 266 266 266 267 267 268 269 269 270 271 271 272 272 273 273 273 274 273 273 272 271 271 271 270 270 270 270 270 271 272
270 272 274 276 277 279 280 281 281 281 281 281 281 281 280 280 280 281 281 281 282 282 282 282 283 282 282 282 281 281 281 281 281 281 281 281 281 281 280 280 280 279 279 278 278 277 277 277 277 277 276 275 274 273 272 270 269 269 268 269 269 269 270 271 271 272 272 273 273 273 274 274 275 275 274 273 272 271 271 271 271 271 271 271 271
273 274 275 277 278 279 280 281 282 282 282 282 282 282 282 282 282 282 281 282 282 282 282 282 282 282 282 282 282 282 282 282 282 281 281 281 282 282 282 282 282 282 282 282 281 281 280 280 279 279 279 279 278 278 277 276 274 273 272 271 270 270 271 271 272 272 273 273 273 273 273 273 274 274 274 274 274 273 272 272 272 271 271 271 270
274 275 276 277 278 278 279 280 281 282 282 283 283 283 283 283 283 283 283 283 283 283 282 282 282 282 281 281 281 280 280 280 280 280 280 280 280 280 281 281 281 281 281 281 281 281 281 281 281 280 280 280 279 279 279 279 279 278 277 275 274 273 272 272 272 272 273 273 274 274 274 274 274 274 274 274 273 273 272 272 272 271 270 270 269
274 275 277 278 279 279 280 281 282 283 283 284 284 284 284 285 285 285 285 285 285 285 285 285 285 284 284 284 283 282 280 279 279 279 279 279 279 280 280 280 280 280 280 280 280 280 279 280 280 280 280 280 279 279 279 279 279 279 278 278 277 277 276 275 274 273 273 273 273 274 274 275 275 275 274 273 272 272 271 271 270 270 269 269 269
275 276 278 279 281 283 284 285 285 285 285 285 285 286 286 287 287 287 287 287 288 288 287 287 287 286 286 286 286 285 284 282 282 281 280 279 279 279 279 279 279 279 279 279 279 278 278 278 278 278 278 278 278 278 278 278 277 277 277 277 277 277 277 277 277 276 276 275 274 274 274 274 275 275 274 273 272 271 270 270 270 270 271 271 271
276 278 281 283 285 287 288 289 289 289 288 288 288 288 289 289 289 289 289 289 289 289 288 288 288 288 288 288 288 287 286 285 285 284 283 282 281 280 279 278 278 277 277 277 277 276 276 276 276 276 276 276 276 276 276 276 276 276 276 276 275 275 275 275 276 276 276 276 276 276 275 275 275 275 275 275 274 273 272 271 270 271 272 273 274
278 281 283 286 288 289 290 290 290 290 290 289 289 290 290 290 290 290 290 290 290 290 289 289 289 289 290 290 290 289 288 287 286 285 285 284 283 282 281 280 278 277 276 275 274 273 273 273 273 273 274 274 274 274 274 274 274 275 275 275 275 275 275 275 275 275 275 275 276 276 276 275 275 275 275 275 276 276 275 275 274 274 274 275 276
280 282 284 285 287 289 290 290 290 289 289 289 289 289 290 290 290 290 290 290 290 290 290 290 290 291 290 290 290 289 288 287 287 286 285 285 284 283 282 281 280 279 277 276 274 273 272 271 271 270 271 271 271 272 272 273 273 273 273 274 274 275 275 275 275 275 275 275 275 275 275 274 274 274 275 275 275 276 276 277 277 276 276 276 277
282 282 284 285 287 288 288 288 288 288 287 288 288 288 289 289 289 290 290 290 290 290 290 290 290 291 290 290 290 289 288 287 287 286 285 284 284 283 282 281 280 279 278 277 276 274 273 272 271 270 270 269 269 270 270 271 271 272 273 273 273 274 274 275 275 275 275 275 275 275 274 274 274 274 274 274 275 275 276 276 277 277 278 278 278
283 283 284 285 286 287 287 287 287 287 287 288 288 289 289 289 289 289 289 290 290 290 290 290 290 290 290 289 289 288 288 287 287 286 286 285 285 284 283 281 280 279 278 277 276 275 274 273 272 271 270 270 269 269 269 270 270 271 272 272 273 273 273 274 274 274 275 275 275 275 274 274 274 273 273 273 274 274 275 276 276 277 277 277 278
285 285 285 286 286 286 287 287 287 287 288 288 289 289 290 290 290 290 290 290 290 290 289 289 289 289 289 288 288 287 287 287 287 287 287 287 287 287 287 286 285 283 281 279 278 277 276 275 274 273 272 272 271 271 270 270 270 270 271 271 272 272 272 273 273 273 274 274 274 274 274 274 273 273 272 272 272 273 273 274 275 275 276 276 277
287 287 287 287 287 287 287 287 288 288 289 290 290 290 290 290 290 290 290 290 290 290 289 289 289 289 288 287 287 286 286 287 288 288 289 289 290 290 291 291 290 289 287 285 283 281 280 279 278 277 276 275 275 274 273 273 272 272 271 271 272 272 272 272 273 273 273 273 273 273 273 273 273 273 272 272 271 272 272 273 273 274 274 275 275
289 289 288 288 288 288 288 289 289 290 290 290 290 290 290 290 291 291 291 290 290 289 289 289 288 287 286 285 285 286 287 288 288 289 289 289 290 290 291 291 292 291 291 289 287 286 284 283 282 281 280 279 278 277 277 276 275 275 274 273 273 273 273 273 273 273 273 273 273 273 273 273 273 273 272 272 272 271 271 272 272 273 273 274 274
290 289 289 289 289 289 290 290 290 290 290 290 289 290 290 290 290 290 290 290 289 289 288 287 286 285 285 285 286 288 289 289 289 289 289 289 289 290 290 290 290 290 290 290 289 287 286 286 285 285 284 283 282 281 279 278 278 277 277 277 276 275 275 275 274 274 273 273 273 273 273 273 273 273 273 273 272 272 272 272 272 272 272 273 274
291 290 290 290 290 290 290 290 289 289 289 289 290 290 290 290 290 290 290 289 288 287 286 285 284 284 285 287 288 289 290 290 289 289 289 289 289 289 288 288 288 288 287 287 287 287 286 285 285 285 285 284 283 282 281 280 280 280 280 281 280 280 279 278 277 277 276 275 274 274 274 274 274 274 274 274 274 273 273 272 272 272 272 273 274
290 290 289 289 289 289 289 289 289 290 290 291 291 292 291 291 290 289 288 287 286 285 285 284 284 285 286 287 288 289 289 289 289 288 288 288 287 287 287 287 286 286 286 286 286 286 285 284 284 284 284 284 283 282 281 281 281 281 281 282 282 283 283 283 282 281 279 278 276 275 274 274 274 274 275 274 274 274 273 272 271 271 271 272 273
Height
5928 5929 5930 5931 5932 5932 5933 5934 5935 5936 5937 5937 5938 5939 5939 5940 5941 5942 5943 5943 5944 5945 5945 5946 5946 5947 5947 5947 5948 5948 5949 5949 5949 5949 5950 5950 5950 5950 5950 5950 5950 5950 5950 5950 5950 5950 5950 5950 5950 5950 5949 5949 5949 5949 5949 5949 5949 5949 5948 5948 5948 5948 5947 5947 5947 5948 5947 5947 5947 5946 5946 5945 5944 5944 5944 5943 5943 5942 5941 5940 5939 5938 5937 5937 5936
5926 5927 5928 5929 5930 5931 5932 5933 5934 5934 5935 5935 5936 5937 5937 5938 5939 5940 5941 5942 5942 5943 5943 5944 5945 5945 5945 5946 5946 5947 5947 5948 5948 5948 5948 5949 5949 5949 5949 5950 5950 5950 5949 5949 5949 5949 5949 5949 5949 5949 5949 5949 5948 5948 5948 5948 5948 5948 5948 5947 5947 5947 5946 5946 5946 5946 5946 5945 5945 5945 5945 5944 5943 5943 5942 5942 5941 5940 5939 5939 5938 5937 5936 5935 5935
5924 5925 5926 5927 5928 5929 5930 5931 5932 5933 5933 5934 5934 5935 5935 5936 5938 5939 5939 5940 5941 5941 5942 5942 5943 5943 5944 5944 5945 5945 5945 5946 5946 5947 5947 5947 5948 5948 5948 5948 5949 5949 5949 5949 5948 5948 5948 5948 5948 5947 5947 5947 5947 5947 5947 5947 5947 5947 5946 5946 5946 5945 5945 5945 5944 5944 5944 5944 5944 5944 5944 5943 5942 5941 5940 5940 5939 5938 5937 5937 5936 5935 5934 5933 5933
5922 5923 5924 5925 5926 5927 5928 5929 5930 5931 5931 5932 5933 5933 5934 5935 5936 5937 5937 5938 5939 5939 5940 5941 5941 5942 5942 5942 5943 5943 5944 5944 5944 5945 5945 5946 5946 5946 5946 5947 5947 5947 5947 5947 5947 5947 5947 5947 5947 5947 5946 5946 5946 5946 5946 5945 5945 5945 5945 5945 5944 5944 5944 5943 5943 5942 5942 5943 5943 5943 5942 5941 5940 5939 5938 5937 5936 5936 5935 5934 5934 5933 5932 5931 5931
5920 5920 5921 5923 5924 5925 5925 5926 5927 5928 5928 5929 5930 5931 5932 5933 5934 5934 5935 5936 5936 5937 5938 5938 5939 5939 5939 5940 5941 5941 5942 5942 5943 5943 5944 5944 5944 5944 5944 5945 5945 5945 5945 5946 5945 5945 5945 5945 5946 5945 5945 5945 5945 5945 5944 5944 5944 5943 5943 5943 5943 5943 5942 5942 5942 5941 5941 5941 5941 5941 5941 5940 5939 5938 5937 5936 5934 5934 5933 5932 5931 5931 5930 5930 5929
5917 5917 5918 5919 5921 5922 5923 5924 5924 5924 5925 5926 5927 5928 5929 5930 5931 5932 5932 5933 5934 5934 5935 5935 5936 5936 5937 5937 5938 5939 5939 5940 5940 5940 5941 5942 5942 5942 5942 5942 5943 5943 5943 5943 5943 5943 5943 5943 5943 5943 5943 5943 5943 5943 5943 5942 5942 5942 5941 5941 5941 5941 5941 5940 5940 5940 5939 5939 5939 5939 5939 5939 5938 5937 5936 5935 5933 5932 5931 5930 5929 5929 5928 5927 5927
5914 5915 5916 5917 5918 5918 5919 5921 5921 5921 5922 5923 5924 5924 5925 5926 5927 5928 5929 5930 5930 5931 5931 5932 5933 5934 5934 5935 5936 5936 5937 5937 5937 5938 5938 5939 5939 5939 5940 5940 5940 5940 5940 5940 5941 5941 5941 5941 5941 5941 5941 5941 5941 5941 5941 5941 5940 5940 5939 5939 5939 5939 5938 5938 5938 5938 5937 5937 5937 5937 5937 5937 5936 5936 5935 5933 5932 5930 5929 5928 5927 5927 5926 5925 5924
5913 5914 5914 5915 5916 5916 5916 5917 5918 5918 5919 5919 5920 5921 5922 5923 5924 5925 5926 5927 5927 5927 5928 5929 5930 5931 5932 5932 5933 5933 5934 5934 5935 5935 5936 5936 5936 5937 5937 5937 5937 5938 5938 5938 5938 5938 5938 5939 5939 5938 5939 5938 5938 5938 5938 5938 5938 5938 5937 5937 5937 5937 5936 5936 5936 5936 5936 5935 5935 5935 5934 5934 5934 5934 5933 5931 5930 5929 5927 5926 5925 5925 5924 5923 5922
5910 5911 5912 5912 5912 5912 5913 5913 5914 5915 5915 5916 5917 5918 5918 5919 5921 5922 5923 5924 5924 5925 5925 5926 5927 5928 5929 5929 5930 5931 5931 5932 5932 5933 5933 5934 5934 5934 5935 5935 5936 5936 5936 5935 5935 5936 5936 5936 5936 5936 5936 5936 5935 5935 5935 5935 5935 5935 5935 5935 5935 5935 5934 5934 5934 5934 5934 5933 5933 5932 5932 5931 5931 5931 5930 5929 5928 5926 5925 5924 5923 5923 5922 5921 5920
5908 5909 5909 5909 5909 5909 5910 5911 5912 5912 5913 5914 5915 5916 5916 5916 5917 5918 5919 5920 5921 5922 5923 5924 5924 5925 5925 5926 5927 5927 5928 5930 5931 5931 5931 5931 5932 5932 5933 5933 5933 5933 5933 5933 5933 5933 5933 5933 5933 5933 5933 5933 5933 5933 5933 5933 5933 5932 5932 5932 5932 5932 5932 5931 5931 5931 5931 5931 5930 5930 5929 5929 5928 5928 5927 5926 5925 5924 5923 5922 5921 5920 5919 5918 5917
5905 5906 5906 5906 5906 5906 5907 5908 5910 5911 5911 5913 5914 5914 5914 5913 5913 5914 5915 5916 5918 5919 5920 5920 5921 5921 5922 5922 5924 5924 5926 5927 5927 5927 5927 5928 5928 5929 5929 5930 5930 5930 5931 5931 5930 5930 5930 5931 5931 5930 5931 5931 5932 5931 5931 5930 5930 5929 5929 5929 5929 5929 5929 5928 5928 5927 5927 5927 5927 5927 5927 5926 5926 5925 5924 5923 5922 5921 5920 5918 5918 5917 5916 5915 5914
5901 5902 5903 5903 5903 5902 5902 5904 5908 5909 5909 5909 5911 5911 5911 5911 5911 5910 5911 5913 5914 5915 5916 5916 5918 5919 5919 5920 5921 5921 5923 5923 5921 5922 5923 5923 5924 5925 5926 5926 5927 5927 5927 5927 5927 5927 5927 5927 5928 5928 5928 5928 5928 5928 5928 5928 5927 5927 5926 5926 5926 5926 5926 5926 5925 5924 5924 5925 5925 5924 5923 5923 5923 5922 5921 5920 5919 5918 5916 5915 5914 5913 5912 5912 5911
5897 5898 5898 5899 5898 5898 5897 5900 5904 5905 5904 5904 5905 5906 5907 5908 5908 5908 5908 5909 5910 5911 5912 5913 5915 5916 5916 5917 5917 5917 5918 5917 5916 5917 5918 5919 5920 5921 5922 5923 5924 5924 5923 5923 5923 5923 5923 5923 5924 5925 5925 5925 5924 5924 5924 5924 5923 5923 5923 5924 5924 5924 5923 5923 5923 5922 5922 5922 5922 5921 5920 5919 5919 5918 5918 5917 5915 5914 5913 5912 5911 5909 5908 5908 5907
5894 5895 5894 5894 5894 5893 5893 5895 5898 5899 5899 5899 5899 5900 5901 5902 5903 5904 5905 5905 5906 5907 5908 5909 5910 5911 5911 5912 5912 5913 5914 5913 5913 5914 5915 5915 5916 5917 5918 5919 5920 5920 5919 5919 5919 5919 5919 5918 5919 5920 5920 5920 5920 5920 5920 5919 5919 5919 5920 5920 5921 5921 5920 5920 5920 5919 5919 5918 5918 5917 5916 5915 5915 5914 5914 5914 5912 5910 5910 5909 5907 5906 5905 5904 5903
5891 5891 5890 5890 5890 5889 5889 5890 5892 5894 5894 5894 5895 5895 5895 5897 5899 5900 5901 5902 5902 5903 5903 5904 5906 5907 5908 5908 5908 5909 5909 5909 5909 5910 5910 5911 5912 5912 5913 5914 5915 5915 5915 5915 5915 5915 5915 5915 5915 5915 5915 5915 5916 5916 5916 5915 5915 5915 5916 5915 5915 5916 5916 5915 5915 5915 5915 5914 5914 5912 5912 5911 5911 5910 5910 5910 5908 5907 5907 5906 5905 5903 5902 5900 5899
5887 5887 5887 5887 5887 5886 5885 5885 5887 5888 5889 5889 5891 5891 5891 5892 5894 5895 5896 5898 5898 5898 5898 5900 5901 5902 5902 5901 5902 5903 5903 5903 5904 5905 5906 5907 5907 5908 5908 5909 5909 5910 5910 5910 5910 5910 5910 5910 5910 5911 5911 5911 5912 5911 5910 5910 5910 5911 5911 5910 5910 5911 5911 5911 5910 5909 5908 5909 5909 5908 5908 5907 5906 5905 5905 5905 5904 5903 5903 5903 5901 5900 5899 5898 5896
5883 5883 5883 5884 5884 5883 5882 5882 5882 5883 5883 5883 5884 5885 5886 5888 5890 5890 5892 5893 5893 5893 5893 5894 5896 5896 5895 5894 5896 5898 5898 5898 5899 5899 5900 5901 5902 5903 5903 5904 5904 5905 5905 5905 5905 5905 5905 5905 5906 5906 5906 5906 5906 5906 5905 5904 5904 5905 5906 5905 5906 5907 5907 5906 5905 5904 5903 5904 5904 5903 5902 5902 5901 5901 5900 5900 5900 5899 5899 5899 5897 5897 5896 5895 5893
5880 5880 5880 5880 5880 5879 5879 5878 5878 5878 5878 5877 5878 5880 5882 5884 5885 5886 5887 5887 5888 5887 5888 5889 5890 5891 5891 5890 5889 5891 5893 5893 5892 5892 5894 5895 5896 5897 5898 5898 5899 5900 5901 5901 5901 5901 5900 5901 5901 5902 5901 5901 5901 5901 5900 5900 5899 5900 5901 5901 5901 5902 5902 5900 5900 5900 5899 5899 5899 5898 5897 5896 5896 5896 5896 5896 5896 5896 5896 5895 5893 5892 5891 5891 5890
5877 5877 5877 5876 5877 5876 5876 5876 5875 5875 5874 5873 5873 5876 5879 5879 5880 5881 5882 5881 5881 5882 5883 5885 5885 5884 5885 5886 5885 5886 5888 5888 5886 5887 5889 5890 5891 5892 5893 5893 5894 5895 5896 5896 5896 5896 5896 5896 5897 5897 5896 5896 5896 5896 5896 5895 5895 5895 5896 5895 5896 5897 5896 5895 5895 5895 5895 5894 5893 5893 5893 5892 5891 5891 5891 5891 5891 5891 5890 5889 5888 5887 5886 5886 5885
5874 5874 5873 5873 5873 5873 5873 5873 5873 5873 5874 5872 5872 5873 5875 5875 5875 5875 5876 5876 5876 5878 5879 5879 5879 5879 5879 5881 5881 5881 5882 5883 5883 5883 5884 5885 5886 5887 5888 5888 5889 5890 5890 5891 5891 5891 5891 5891 5892 5892 5892 5892 5892 5891 5891 5891 5890 5890 5890 5890 5890 5891 5891 5890 5890 5891 5891 5890 5888 5889 5888 5887 5886 5886 5886 5886 5886 5884 5882 5881 5881 5881 5881 5881 5880
5871 5871 5870 5870 5870 5870 5870 5870 5870 5870 5871 5871 5870 5870 5871 5871 5871 5871 5870 5870 5871 5872 5873 5873 5874 5875 5875 5876 5876 5876 5876 5878 5878 5879 5879 5880 5881 5882 5883 5883 5884 5884 5885 5885 5886 5886 5886 5886 5886 5886 5886 5887 5887 5886 5886 5885 5885 5885 5885 5885 5885 5885 5886 5885 5886 5886 5886 5884 5883 5884 5884 5883 5881 5881 5880 5880 5880 5878 5876 5876 5876 5875 5875 5875 5875
5868 5867 5867 5867 5867 5866 5866 5866 5866 5866 5866 5866 5866 5867 5868 5868 5868 5868 5867 5867 5866 5867 5867 5868 5869 5870 5871 5872 5872 5872 5872 5873 5874 5874 5875 5875 5876 5877 5877 5878 5878 5879 5879 5880 5880 5880 5880 5880 5880 5880 5880 5880 5881 5881 5880 5880 5879 5879 5879 5879 5879 5880 5880 5879 5879 5880 5879 5878 5878 5878 5878 5877 5876 5875 5874 5874 5874 5873 5872 5872 5871 5870 5870 5869 5869
5864 5864 5863 5863 5863 5863 5862 5863 5863 5863 5863 5863 5863 5864 5864 5865 5865 5865 5865 5864 5864 5863 5863 5863 5863 5864 5865 5866 5867 5868 5868 5869 5869 5870 5870 5871 5872 5872 5872 5873 5873 5873 5874 5874 5874 5874 5874 5874 5874 5874 5874 5874 5875 5875 5875 5874 5874 5874 5873 5874 5874 5874 5873 5873 5873 5873 5873 5872 5872 5872 5871 5871 5871 5869 5867 5867 5867 5867 5867 5866 5865 5864 5864 5864 5863
5860 5860 5860 5860 5860 5859 5859 5859 5859 5859 5859 5860 5860 5860 5860 5861 5861 5862 5862 5862 5861 5860 5860 5860 5859 5860 5860 5861 5862 5862 5862 5863 5864 5865 5865 5866 5867 5867 5867 5867 5867 5867 5868 5868 5867 5867 5867 5867 5867 5868 5868 5868 5869 5869 5869 5869 5868 5868 5868 5868 5868 5868 5868 5867 5867 5867 5866 5866 5867 5867 5866 5866 5865 5864 5862 5862 5861 5860 5860 5859 5858 5858 5858 5858 5858
5856 5856 5856 5856 5856 5856 5856 5856 5856 5856 5856 5856 5857 5857 5857 5857 5857 5858 5858 5858 5858 5858 5857 5857 5857 5857 5857 5858 5858 5858 5857 5857 5859 5860 5859 5860 5861 5861 5861 5861 5861 5861 5861 5861 5861 5860 5860 5861 5861 5862 5862 5862 5862 5863 5863 5863 5863 5862 5862 5862 5862 5862 5862 5861 5861 5861 5861 5860 5860 5861 5861 5860 5859 5858 5858 5857 5856 5855 5854 5853 5853 5853 5853 5853 5852
5852 5852 5852 5852 5852 5852 5852 5852 5852 5852 5852 5852 5852 5853 5853 5853 5853 5853 5854 5854 5854 5854 5854 5853 5853 5853 5854 5854 5854 5854 5854 5854 5855 5855 5854 5854 5855 5855 5855 5856 5856 5856 5856 5855 5855 5855 5855 5855 5856 5856 5857 5857 5857 5857 5857 5857 5857 5857 5857 5857 5856 5856 5855 5855 5854 5854 5854 5854 5854 5854 5854 5854 5853 5852 5852 5851 5850 5848 5848 5847 5847 5847 5847 5847 5847
5848 5848 5848 5848 5849 5849 5849 5849 5848 5848 5848 5848 5848 5848 5849 5849 5849 5849 5849 5849 5849 5849 5849 5849 5849 5849 5849 5850 5850 5850 5850 5850 5851 5851 5850 5850 5851 5851 5851 5851 5851 5851 5851 5851 5850 5850 5850 5850 5850 5851 5851 5851 5851 5851 5851 5851 5851 5851 5851 5850 5850 5850 5849 5849 5848 5848 5848 5848 5847 5847 5848 5847 5847 5846 5846 5845 5844 5843 5842 5841 5841 5841 5841 5841 5841
5844 5844 5844 5844 5844 5845 5845 5845 5845 5844 5844 5844 5844 5844 5844 5845 5845 5845 5845 5845 5844 5845 5845 5845 5845 5845 5845 5845 5845 5845 5845 5845 5845 5845 5845 5846 5846 5846 5846 5846 5846 5846 5846 5846 5846 5846 5845 5845 5845 5845 5845 5845 5845 5845 5845 5845 5845 5845 5844 5844 5843 5843 5843 5842 5842 5842 5841 5841 5841 5840 5840 5840 5839 5839 5839 5838 5837 5837 5836 5835 5835 5835 5834 5834 5834
5840 5840 5840 5840 5840 5840 5840 5840 5840 5840 5840 5840 5840 5840 5840 5840 5840 5840 5840 5840 5840 5840 5840 5840 5840 5841 5841 5841 5841 5840 5840 5840 5840 5840 5839 5840 5840 5840 5840 5840 5840 5840 5840 5841 5841 5841 5840 5840 5840 5840 5839 5839 5839 5839 5839 5839 5839 5838 5838 5837 5837 5836 5836 5836 5835 5835 5835 5835 5834 5834 5833 5833 5832 5831 5831 5831 5830 5830 5829 5829 5828 5828 5827 5827 5826
5836 5836 5836 5836 5835 5835 5835 5835 5835 5836 5836 5836 5836 5835 5835 5835 5835 5835 5835 5835 5835 5835 5835 5835 5835 5835 5835 5835 5835 5835 5835 5835 5835 5834 5834 5834 5834 5834 5834 5834 5834 5834 5834 5834 5835 5835 5835 5834 5834 5834 5833 5833 5833 5832 5832 5832 5831 5831 5831 5830 5830 5830 5829 5829 5828 5828 5828 5828 5828 5827 5827 5826 5825 5824 5823 5823 5822 5822 5822 5821 5820 5820 5820 5819 5818
5833 5833 5832 5832 5832 5831 5831 5831 5831 5831 5831 5831 5831 5831 5831 5830 5830 5830 5830 5830 5830 5830 5830 5830 5830 5830 5830 5830 5830 5830 5830 5830 5829 5829 5829 5828 5828 5828 5828 5828 5828 5828 5828 5828 5828 5828 5828 5828 5827 5827 5826 5826 5826 5825 5825 5825 5824 5824 5823 5823 5823 5822 5822 5821 5821 5821 5820 5820 5820 5820 5819 5819 5818 5817 5816 5815 5814 5814 5813 5812 5812 5812 5811 5811 5810
5828 5828 5828 5828 5828 5828 5827 5827 5826 5826 5826 5826 5826 5826 5826 5826 5826 5826 5825 5825 5825 5825 5825 5824 5824 5824 5824 5824 5824 5824 5824 5824 5824 5824 5823 5823 5822 5822 5822 5821 5821 5821 5821 5821 5821 5821 5821 5821 5820 5820 5819 5819 5818 5818 5818 5817 5817 5816 5816 5815 5815 5815 5815 5814 5814 5813 5812 5812 5812 5811 5811 5811 5810 5809 5808 5807 5807 5806 5805 5804 5804 5804 5803 5802 5802
5823 5823 5824 5824 5824 5824 5824 5824 5823 5823 5823 5822 5822 5822 5822 5822 5821 5821 5821 5820 5820 5819 5819 5819 5819 5818 5818 5818 5818 5818 5818 5818 5818 5817 5817 5817 5817 5816 5815 5815 5814 5814 5814 5814 5813 5813 5813 5813 5812 5812 5812 5811 5810 5810 5809 5809 5808 5808 5807 5807 5806 5806 5806 5805 5805 5805 5804 5804 5803 5802 5802 5802 5802 5801 5800 5800 5799 5799 5799 5797 5796 5796 5795 5795 5794
5819 5819 5819 5819 5819 5819 5820 5820 5820 5819 5819 5819 5818 5818 5817 5817 5816 5816 5815 5815 5814 5814 5813 5813 5813 5812 5812 5812 5812 5811 5811 5811 5811 5810 5810 5810 5809 5809 5809 5808 5808 5807 5807 5806 5805 5805 5805 5804 5804 5803 5803 5803 5802 5802 5801 5801 5800 5799 5799 5798 5797 5796 5796 5796 5795 5795 5795 5794 5794 5793 5793 5793 5793 5793 5792 5792 5791 5791 5790 5789 5788 5788 5788 5787 5786
5815 5815 5815 5815 5815 5815 5815 5815 5815 5815 5814 5814 5814 5814 5813 5812 5811 5811 5810 5809 5809 5808 5808 5807 5807 5807 5806 5806 5805 5805 5805 5804 5804 5803 5803 5802 5802 5801 5801 5800 5800 5800 5799 5798 5798 5797 5796 5796 5795 5795 5794 5794 5794 5793 5793 5792 5791 5791 5790 5789 5788 5788 5787 5786 5786 5785 5785 5784 5784 5783 5783 5782 5782 5782 5783 5782 5782 5781 5780 5779 5779 5779 5779 5778 5777
5812 5812 5811 5811 5811 5810 5810 5810 5810 5809 5809 5809 5809 5809 5808 5807 5806 5806 5805 5804 5804 5803 5802 5802 5802 5801 5801 5800 5800 5799 5799 5798 5797 5797 5796 5796 5795 5794 5794 5793 5792 5792 5791 5790 5790 5789 5788 5787 5786 5786 5785 5784 5784 5784 5783 5783 5783 5782 5781 5780 5780 5779 5778 5777 5777 5776 5775 5775 5774 5774 5773 5773 5772 5772 5772 5772 5772 5771 5771 5770 5769 5769 5769 5768 5768
5808 5808 5807 5807 5807 5806 5806 5805 5805 5804 5804 5804 5803 5803 5803 5802 5801 5801 5800 5799 5799 5798 5797 5797 5796 5796 5795 5794 5794 5793 5792 5792 5791 5790 5790 5789 5788 5787 5787 5786 5785 5784 5783 5782 5782 5781 5780 5779 5778 5777 5776 5775 5774 5774 5773 5773 5773 5773 5772 5772 5771 5770 5769 5768 5768 5767 5766 5766 5765 5764 5764 5764 5763 5762 5762 5762 5761 5761 5761 5760 5759 5759 5759 5759 5758
5803 5803 5803 5802 5802 5802 5801 5800 5800 5799 5799 5798 5798 5797 5797 5796 5795 5794 5793 5793 5792 5792 5791 5791 5790 5789 5788 5788 5788 5787 5786 5785 5784 5784 5783 5782 5781 5780 5779 5778 5777 5776 5775 5774 5773 5772 5771 5770 5769 5768 5768 5767 5766 5765 5764 5763 5763 5762 5762 5762 5761 5761 5760 5759 5758 5758 5757 5757 5756 5756 5755 5755 5754 5753 5753 5753 5752 5752 5751 5751 5750 5750 5749 5749 5748
5799 5799 5798 5797 5797 5796 5796 5795 5795 5794 5793 5792 5792 5791 5790 5789 5788 5787 5786 5785 5785 5784 5783 5782 5782 5781 5781 5780 5780 5779 5778 5777 5777 5776 5775 5774 5773 5772 5771 5770 5769 5768 5766 5765 5764 5763 5762 5761 5759 5758 5758 5757 5756 5755 5754 5754 5753 5752 5751 5751 5751 5750 5749 5749 5748 5748 5748 5747 5747 5747 5746 5746 5745 5744 5743 5743 5742 5742 5742 5741 5741 5740 5740 5739 5738
5794 5794 5793 5792 5791 5791 5790 5790 5789 5788 5787 5786 5785 5784 5783 5783 5782 5780 5779 5778 5777 5776 5774 5773 5773 5772 5772 5772 5772 5771 5768 5767 5767 5767 5766 5766 5765 5764 5763 5762 5761 5759 5758 5756 5755 5753 5752 5750 5749 5748 5747 5746 5745 5744 5744 5743 5742 5742 5741 5740 5740 5739 5739 5738 5738 5737 5737 5737 5737 5737 5736 5736 5735 5734 5734 5733 5733 5732 5732 5731 5731 5730 5730 5729 5729
5789 5788 5788 5787 5786 5785 5784 5783 5783 5782 5781 5780 5779 5777 5777 5776 5775 5773 5772 5771 5769 5768 5766 5764 5763 5763 5763 5762 5762 5761 5759 5756 5756 5756 5755 5755 5755 5754 5753 5752 5751 5750 5748 5747 5745 5743 5742 5740 5739 5738 5737 5736 5735 5734 5733 5732 5731 5730 5730 5729 5729 5729 5728 5728 5727 5727 5727 5726 5726 5726 5726 5725 5725 5724 5723 5723 5722 5722 5722 5722 5721 5720 5720 5719 5718
5783 5783 5782 5781 5780 5779 5778 5777 5776 5775 5774 5773 5772 5771 5770 5768 5767 5766 5764 5763 5761 5760 5758 5755 5754 5755 5755 5753 5752 5751 5749 5746 5745 5745 5744 5743 5743 5743 5742 5741 5740 5739 5737 5736 5735 5733 5731 5730 5729 5728 5727 5726 5725 5724 5722 5721 5720 5719 5719 5718 5718 5717 5717 5717 5717 5717 5717 5716 5716 5716 5715 5715 5714 5714 5713 5712 5712 5712 5712 5711 5711 5710 5709 5708 5707
5778 5777 5776 5775 5774 5773 5772 5771 5770 5769 5768 5767 5766 5765 5763 5761 5760 5758 5757 5755 5753 5752 5750 5746 5744 5745 5745 5744 5742 5741 5738 5736 5735 5735 5734 5732 5732 5731 5730 5728 5727 5726 5725 5724 5723 5721 5720 5719 5718 5717 5716 5715 5714 5713 5711 5710 5710 5709 5708 5707 5707 5706 5705 5705 5706 5706 5706 5706 5706 5705 5705 5705 5704 5704 5703 5702 5702 5701 5701 5701 5701 5700 5700 5699 5698
5772 5771 5770 5769 5768 5767 5766 5765 5764 5763 5761 5760 5759 5758 5756 5754 5753 5751 5749 5748 5745 5743 5741 5739 5736 5735 5735 5734 5733 5731 5728 5725 5724 5724 5723 5721 5720 5720 5718 5717 5716 5714 5713 5712 5710 5709 5707 5706 5706 5705 5704 5703 5702 5701 5700 5699 5698 5698 5697 5697 5697 5696 5695 5695 5695 5695 5695 5695 5695 5695 5695 5695 5694 5694 5693 5693 5692 5692 5692 5691 5691 5691 5690 5689 5689
5767 5766 5765 5764 5762 5761 5760 5758 5757 5756 5755 5753 5752 5750 5748 5746 5745 5743 5741 5740 5737 5735 5733 5731 5728 5726 5725 5724 5723 5721 5718 5716 5714 5713 5712 5710 5709 5708 5707 5706 5705 5703 5701 5700 5699 5697 5696 5694 5693 5693 5692 5691 5691 5690 5689 5688 5687 5687 5686 5685 5685 5685 5685 5684 5684 5684 5684 5684 5684 5684 5684 5684 5684 5684 5683 5683 5683 5683 5682 5682 5682 5682 5681 5681 5680
5761 5760 5759 5757 5756 5755 5753 5752 5750 5749 5747 5746 5744 5742 5740 5738 5736 5734 5732 5731 5729 5726 5724 5722 5720 5718 5716 5715 5714 5712 5710 5707 5706 5704 5703 5701 5699 5697 5696 5695 5693 5692 5690 5689 5688 5686 5684 5683 5681 5681 5680 5679 5679 5678 5677 5676 5676 5676 5675 5674 5673 5673 5674 5673 5673 5673 5673 5673 5673 5673 5673 5673 5673 5673 5673 5673 5673 5673 5673 5673 5673 5673 5673 5672 5672
5755 5753 5752 5751 5749 5748 5746 5745 5743 5741 5740 5738 5736 5734 5732 5729 5727 5725 5723 5721 5719 5717 5714 5712 5710 5708 5707 5705 5704 5703 5701 5699 5697 5696 5694 5692 5691 5689 5687 5685 5683 5682 5680 5679 5677 5676 5673 5671 5670 5670 5669 5668 5667 5667 5665 5664 5664 5664 5664 5663 5663 5663 5663 5662 5662 5662 5662 5662 5662 5663 5663 5663 5662 5663 5663 5663 5663 5664 5664 5664 5664 5664 5664 5664 5663
5748 5747 5745 5744 5742 5741 5739 5737 5736 5734 5732 5730 5728 5726 5723 5721 5719 5717 5715 5712 5710 5708 5706 5704 5701 5699 5698 5696 5695 5694 5693 5691 5689 5687 5686 5684 5682 5681 5679 5677 5675 5673 5671 5669 5668 5667 5665 5662 5661 5660 5659 5658 5657 5656 5655 5654 5653 5653 5653 5653 5653 5652 5652 5651 5651 5651 5651 5651 5651 5652 5652 5652 5652 5652 5653 5653 5653 5654 5654 5654 5654 5655 5655 5655 5654
5742 5740 5738 5737 5735 5733 5732 5730 5728 5726 5724 5722 5720 5719 5716 5713 5711 5709 5707 5704 5701 5699 5698 5696 5694 5691 5689 5688 5687 5685 5683 5682 5680 5679 5677 5675 5674 5672 5670 5668 5667 5665 5663 5661 5659 5659 5657 5655 5653 5652 5651 5650 5649 5647 5646 5645 5644 5643 5643 5643 5643 5642 5641 5641 5641 5640 5641 5641 5641 5641 5641 5641 5642 5642 5642 5642 5643 5643 5644 5644 5645 5645 5645 5645 5645
5735 5733 5731 5729 5728 5726 5724 5722 5720 5718 5716 5714 5712 5711 5708 5706 5703 5701 5699 5696 5693 5691 5690 5688 5686 5684 5682 5680 5679 5677 5675 5673 5671 5669 5668 5666 5665 5663 5661 5660 5658 5657 5655 5653 5651 5650 5649 5648 5646 5645 5644 5642 5641 5640 5639 5638 5637 5636 5635 5635 5634 5633 5632 5632 5631 5631 5630 5631 5631 5631 5631 5631 5631 5631 5632 5632 5633 5633 5634 5635 5635 5635 5636 5636 5636
5728 5726 5724 5722 5720 5718 5716 5714 5712 5710 5708 5706 5704 5702 5700 5698 5695 5694 5691 5689 5686 5684 5682 5680 5679 5677 5675 5673 5671 5669 5667 5665 5662 5660 5659 5657 5655 5654 5652 5651 5649 5648 5646 5644 5643 5642 5641 5640 5638 5637 5636 5635 5634 5633 5631 5630 5629 5629 5628 5627 5626 5626 5625 5624 5623 5622 5622 5621 5621 5621 5621 5622 5622 5622 5622 5623 5623 5624 5625 5625 5626 5626 5626 5627 5627